This demonstration page uses our WeatherBlox Daily Observations layout. Learn more.

Left ArrowRight Arrow

34.74481, -87.66753

Hourly Observations for October 6, 2021

Temp ( °F °C ) Dew Point ( °F °C ) Humidity (%) Winds ( mph kmh ) Pressure ( in mb ) Visibility ( mi km ) Precip ( " mm )
12:06 am 00:06 Cloudy with Nearby Thunderstorms 68 20 64 17.8 87 87 SSW 9 15 30.05 1018 3 4 0.11 2.79
12:11 am 00:11 Cloudy with Nearby Thunderstorms 68 20 64 17.8 87 87 SW 9 15 30.03 1017 1 2 0.29 7.37
12:13 am 00:13 Cloudy with Nearby Thunderstorms 68 20 64 17.8 87 87 WSW 8 13 30.04 1017 1 2 0.33 8.38
12:23 am 00:23 Cloudy with Light Rain 68 20 65 18.3 90 90 VRB 6 9 30.01 1016 3 4 0.39 9.91
12:29 am 00:29 Cloudy with Light Rain 68 20 64 17.8 87 87 NNE 10 17 29.99 1015 9 14 0.39 9.91
12:53 am 00:53 Cloudy 68 20 64 17.8 87 87 SE 5 7 30.00 1016 10 16 0.39 9.91
1:14 am 01:14 Cloudy with Light Rain 67 19.4 63 17.2 87 87 S 8 13 30.01 1016 10 16 0.01 0.25
1:26 am 01:26 Cloudy 66 18.9 63 17.2 90 90 SSE 7 11 30.00 1016 10 16 0.01 0.25
1:53 am 01:53 Cloudy with Light Rain 66 18.9 62 16.7 87 87 SSE 6 9 30.00 1016 10 16 0.01 0.25
2:09 am 02:09 Cloudy 65 18.3 62 16.7 90 90 SSE 6 9 30.02 1017 10 16 0.00 0.00
2:35 am 02:35 Cloudy with Nearby Thunderstorms 65 18.3 61 16.1 87 87 SE 10 17 30.02 1017 10 16 0.00 0.00
2:50 am 02:50 Cloudy 64 18 61 16 88 88 SSE 9 15 30.03 1017 10 16 0.00 0.00
2:53 am 02:53 Cloudy 65 18.3 61 16.1 87 87 SSE 8 13 30.02 1017 10 16 0.00 0.00
3:53 am 03:53 Cloudy with Light Rain 65 18.3 61 16.1 87 87 SE 6 9 30.02 1017 7 11 0.01 0.25
4:05 am 04:05 Cloudy with Light Rain 65 18.3 62 16.7 90 90 SE 9 15 30.03 1017 7 11 0.02 0.51
4:53 am 04:53 Cloudy 65 18.3 62 16.7 90 90 ESE 3 6 30.03 1017 10 16 0.03 0.76
5:01 am 05:01 Cloudy 65 18.3 62 16.7 90 90 SE 5 7 30.04 1017 10 16 0.00 0.00
5:53 am 05:53 Cloudy 66 18.9 62 16.7 87 87 E 3 6 30.05 1018 10 16 0.00 0.00
6:22 am 06:22 Cloudy 66 18.9 62 16.7 87 87 Calm 30.06 1018 10 16 0.00 0.00
6:45 am 06:45 Cloudy 66 18.9 62 16.7 87 87 ESE 5 7 30.06 1018 10 16 0.00 0.00
6:53 am 06:53 Cloudy 66 18.9 62 16.7 87 87 ESE 3 6 30.06 1018 10 16 0.00 0.00
7:50 am 07:50 Cloudy 66 19 63 17 88 88 Calm 30.08 1019 10 16 0.00 0.00
7:53 am 07:53 Cloudy 67 19.4 63 17.2 87 87 Calm 30.07 1018 10 16 0.00 0.00
8:32 am 08:32 Cloudy 68 20 63 17.2 84 84 ESE 3 6 30.09 1019 10 16 0.00 0.00
8:53 am 08:53 Cloudy 68 20 64 17.8 87 87 ESE 6 9 30.08 1019 10 16 0.00 0.00
9:12 am 09:12 Mostly Cloudy 70 21.1 64 17.8 82 82 ESE 3 6 30.09 1019 10 16 0.00 0.00
9:29 am 09:29 Mostly Cloudy 70 21.1 65 18.3 84 84 ESE 5 7 30.09 1019 10 16 0.00 0.00
9:53 am 09:53 Cloudy 71 21.7 66 18.9 84 84 SE 5 7 30.09 1019 10 16 0.00 0.00
10:08 am 10:08 Cloudy 72 22.2 67 19.4 84 84 SE 5 7 30.08 1019 10 16 0.00 0.00
10:31 am 10:31 Cloudy 74 23.3 67 19.4 79 79 SE 6 9 30.08 1019 10 16 0.00 0.00
10:53 am 10:53 Cloudy 74 23.3 67 19.4 79 79 ESE 5 7 30.08 1019 10 16 0.00 0.00
11:18 am 11:18 Cloudy 74 23.3 67 19.4 79 79 ESE 5 7 30.07 1018 10 16 0.00 0.00
11:34 am 11:34 Cloudy 76 24.4 68 20 77 77 SSE 6 9 30.07 1018 10 16 0.00 0.00
11:53 am 11:53 Mostly Cloudy 77 25 67 19.4 71 71 SSW 8 13 30.07 1018 10 16 0.00 0.00
12:53 pm 12:53 Mostly Cloudy 79 26.1 65 18.3 62 62 S 5 7 30.06 1018 10 16 0.00 0.00
1:53 pm 13:53 Mostly Cloudy 80 26.7 66 18.9 62 62 S 5 7 30.03 1017 10 16 0.00 0.00
2:53 pm 14:53 Partly Cloudy 81 27.2 65 18.3 58 58 E 6 9 30.01 1016 10 16 0.00 0.00
3:53 pm 15:53 Mostly Cloudy 83 28.3 66 18.9 57 57 VRB 6 9 29.99 1016 10 16 0.00 0.00
4:53 pm 16:53 Mostly Cloudy 80 26.7 67 19.4 64 64 ESE 5 7 29.99 1016 10 16 0.00 0.00
5:53 pm 17:53 Mostly Cloudy 78 25.6 67 19.4 69 69 E 7 11 30.00 1016 10 16 0.00 0.00
6:33 pm 18:33 Partly Cloudy with Nearby Thunderstorms 76 24.4 68 20 77 77 ESE 5 7 30.00 1016 10 16 0.00 0.00
6:53 pm 18:53 Mostly Clear 74 23.3 68 20 82 82 E 5 7 30.01 1016 10 16 0.00 0.00
7:03 pm 19:03 Mostly Clear with Thunderstorms 74 23.3 69 20.6 85 85 NNW 3 6 30.01 1016 10 16 0.00 0.00
7:18 pm 19:18 Mostly Cloudy 74 23.3 69 20.6 85 85 NE 3 6 30.01 1016 10 16 0.00 0.00
7:53 pm 19:53 Mostly Cloudy 74 23.3 69 20.6 85 85 E 6 9 30.02 1017 10 16 0.00 0.00
8:36 pm 20:36 Cloudy 74 23.3 68 20 82 82 E 12 19 30.02 1017 10 16 0.00 0.00
8:53 pm 20:53 Cloudy 72 22.2 67 19.4 84 84 E 14 22 30.03 1017 10 16 0.00 0.00
8:57 pm 20:57 Cloudy 72 22.2 66 18.9 82 82 E 10 17 30.03 1017 10 16 0.00 0.00
9:17 pm 21:17 Cloudy 71 21.7 66 18.9 84 84 ESE 9 15 30.03 1017 10 16 0.00 0.00
9:53 pm 21:53 Cloudy 71 21.7 66 18.9 84 84 ESE 5 7 30.05 1018 10 16 0.00 0.00
10:53 pm 22:53 Cloudy 71 21.7 66 18.9 84 84 ESE 3 6 30.05 1018 10 16 0.00 0.00
11:53 pm 23:53 Clear 69 20.6 65 18.3 87 87 Calm 30.04 1017 10 16 0.00 0.00

Powered by AerisWeather